Temp
68 70 67 67 57 51 44 49 51 54 57 60 61 61 58 56 57 49 66 70 72 72 73 74 75 76 76 76 76 76 76 77 77 77 77 77 77 76 76 75 75 75 75 75 75 75 74 73 73
67 74 67 58 50 43 45 49 54 56 61 61 63 60 58 55 62 63 64 71 73 73 74 73 73 75 75 75 75 76 76 77 77 77 77 77 76 76 76 75 75 74 74 75 74 74 73 73 73
71 71 63 54 46 44 47 52 57 61 62 61 59 61 57 57 62 64 67 72 73 72 73 73 73 75 75 75 75 75 76 76 77 77 77 77 76 75 75 74 74 74 74 74 74 73 73 72 72
69 66 60 52 47 49 54 56 58 60 60 64 59 55 58 61 63 65 70 73 71 71 73 71 73 75 75 75 75 75 76 76 76 76 77 76 76 75 74 74 73 73 73 74 73 72 72 72 72
63 59 51 47 49 53 52 56 60 58 57 59 58 53 55 63 64 65 67 71 69 70 71 72 73 74 74 75 75 75 75 76 76 76 76 76 75 74 74 73 73 73 73 73 73 72 71 71 71
60 57 48 44 47 54 56 61 62 57 57 57 57 54 54 61 64 63 66 64 68 69 71 71 70 71 73 74 74 74 74 75 74 75 75 75 75 74 74 73 73 73 73 72 72 72 71 71 71
56 51 47 44 48 51 59 63 59 58 58 57 61 52 53 57 62 63 63 63 64 65 67 69 69 68 68 70 71 72 73 74 74 74 74 73 73 73 73 72 73 73 72 72 71 71 71 71 70
56 53 46 44 50 52 58 59 61 59 56 62 59 52 51 59 61 61 61 61 61 62 63 64 69 68 68 68 65 67 70 71 72 71 70 68 69 70 69 69 71 72 72 71 71 70 70 70 69
56 49 46 47 51 54 57 58 59 61 61 56 57 55 56 61 60 59 57 57 58 61 60 61 62 66 70 70 66 64 66 69 68 67 66 64 66 67 67 66 69 70 70 70 70 69 68 65 65
53 46 51 54 53 54 59 59 61 58 56 52 52 55 58 60 57 56 54 54 53 53 56 57 59 61 63 69 69 69 69 67 68 67 66 67 66 66 68 64 65 66 67 68 69 67 64 60 56
53 50 55 56 57 59 60 56 59 57 52 57 56 57 57 55 55 55 53 53 53 52 54 55 55 56 58 61 65 68 69 66 65 67 66 67 66 65 64 63 63 61 60 59 59 58 57 56 55
51 55 57 59 58 59 59 58 57 57 57 59 59 57 55 54 53 53 52 52 52 51 50 53 54 55 56 58 61 64 65 64 62 63 65 66 65 64 63 62 63 63 62 57 56 55 55 55 56
52 54 58 58 58 55 58 55 56 55 52 55 57 57 54 53 52 52 53 52 51 50 49 51 53 53 56 58 62 61 59 61 61 60 64 66 65 64 64 62 61 60 61 59 55 54 56 54 56
56 55 57 58 57 57 56 53 54 55 53 54 55 53 52 52 52 49 50 50 51 50 48 51 52 54 56 59 59 58 59 60 60 60 61 62 62 61 60 59 58 58 58 57 56 55 53 55 54
55 51 54 55 56 55 56 52 54 55 53 53 52 50 50 51 51 50 50 50 50 49 50 50 52 53 53 56 56 56 57 57 56 57 58 58 59 58 57 56 55 55 56 56 55 53 54 54 56
49 48 44 53 55 54 54 46 55 53 52 50 50 47 49 50 51 49 50 50 48 48 49 50 54 52 50 55 55 55 55 55 55 55 56 56 56 56 55 55 54 55 54 53 51 50 47 46 47
44 40 42 50 54 52 51 47 53 50 51 50 48 47 48 48 48 48 49 48 47 48 48 47 49 49 50 52 55 55 55 54 54 54 55 55 54 52 50 48 49 50 49 47 47 44 45 43 45
41 40 44 44 51 48 45 48 52 52 51 52 48 47 47 48 49 48 48 47 47 47 47 47 48 52 53 53 52 52 51 51 52 52 52 51 49 49 48 46 46 47 47 45 44 42 41 40 43
46 43 43 46 53 49 48 48 52 53 50 49 48 48 48 49 48 47 47 46 45 45 45 46 46 50 51 51 50 49 48 48 48 48 49 46 46 47 46 44 44 43 43 43 44 41 40 39 39
45 43 42 48 51 49 48 46 50 51 52 54 55 51 51 46 45 45 44 44 44 45 45 46 47 48 51 53 51 50 48 45 46 45 43 44 44 44 44 42 40 41 41 40 40 41 39 37 36
45 43 42 46 45 45 42 41 47 53 52 54 54 58 55 51 47 45 44 44 43 44 44 47 48 50 52 51 49 47 47 46 44 39 39 40 41 41 40 40 40 39 39 38 37 38 39 36 36
42 50 49 46 42 36 42 35 41 48 50 51 55 53 54 50 48 47 46 43 44 44 44 47 49 50 50 50 49 46 41 39 39 37 37 38 39 39 39 39 38 37 38 37 36 37 36 36 35
47 49 46 43 38 35 35 33 39 45 46 52 59 53 52 49 48 46 46 47 45 44 45 45 46 47 49 50 49 45 39 39 38 36 37 36 37 37 37 37 37 36 36 35 35 35 34 34 32
49 45 42 38 37 29 39 38 36 44 50 51 52 50 50 47 48 48 47 45 43 42 43 44 45 49 49 48 46 43 39 39 37 36 36 35 35 35 35 36 34 34 34 34 33 32 32 31 31
46 42 31 28 26 30 35 32 45 49 51 53 55 52 45 45 45 43 41 43 42 42 42 44 46 47 47 45 44 42 41 41 39 37 37 35 34 32 33 34 33 33 32 32 32 31 31 30 29
43 42 31 25 24 28 33 30 40 48 53 48 49 49 43 41 43 43 43 44 43 42 41 44 43 45 43 42 41 41 41 40 40 38 37 36 34 34 33 32 32 32 32 31 30 30 29 28 28
40 38 45 34 18 23 33 38 45 46 47 46 46 43 39 40 41 42 41 42 41 41 41 41 41 42 41 41 41 40 40 39 38 36 35 34 32 34 32 32 31 31 31 31 30 29 27 27 27
44 47 34 31 22 20 30 31 39 40 45 49 46 42 41 40 39 40 41 40 41 41 40 39 42 41 41 40 41 40 40 39 37 35 33 33 32 32 31 31 30 30 30 30 29 27 27 27 26
40 38 39 39 32 26 22 34 43 50 49 48 48 46 42 42 41 40 40 40 40 39 38 40 39 39 38 40 40 38 36 36 36 34 33 33 32 32 31 31 30 30 29 29 27 27 27 27 27
39 40 40 32 30 30 29 41 46 46 48 47 49 46 43 44 42 41 40 39 37 38 39 39 39 39 39 39 38 37 36 35 34 34 33 32 33 31 31 31 30 29 29 28 27 27 27 27 27
MSLP
1013.51 1013.30 1013.46 1014.08 1016.40 1017.87 1018.49 1018.23 1017.55 1017.34 1017.26 1017.35 1017.28 1017.75 1018.95 1019.51 1019.80 1020.39 1019.61 1019.52 1019.47 1019.90 1020.28 1020.48 1020.75 1020.91 1021.15 1021.26 1021.36 1021.45 1021.46 1021.57 1021.76 1021.69 1021.87 1022.04 1022.03 1022.11 1022.27 1022.59 1022.61 1022.58 1022.70 1022.63 1022.45 1022.42 1022.37 1022.25 1022.15
1013.61 1013.38 1014.05 1015.45 1017.33 1018.85 1019.15 1018.17 1017.58 1017.32 1017.41 1017.56 1017.73 1018.36 1019.05 1019.99 1019.71 1019.77 1019.84 1019.76 1019.55 1019.91 1020.30 1020.53 1020.72 1020.98 1021.19 1021.41 1021.55 1021.64 1021.66 1021.82 1021.85 1022.00 1022.20 1022.36 1022.34 1022.56 1022.76 1022.74 1023.02 1023.06 1023.10 1022.97 1022.96 1022.96 1022.90 1022.79 1022.65
1013.52 1013.75 1015.23 1016.49 1018.25 1018.83 1018.59 1018.23 1017.49 1017.48 1017.34 1017.42 1018.24 1018.89 1019.60 1020.17 1019.92 1019.70 1019.51 1019.67 1019.90 1020.21 1020.40 1020.63 1020.85 1021.09 1021.31 1021.46 1021.58 1021.77 1021.99 1022.09 1022.22 1022.28 1022.48 1022.58 1022.73 1022.98 1023.15 1023.20 1023.51 1023.40 1023.37 1023.38 1023.52 1023.40 1023.39 1023.31 1023.17
1013.85 1014.65 1016.40 1017.17 1018.07 1018.04 1017.82 1017.72 1017.23 1017.22 1017.32 1017.52 1018.38 1019.65 1019.95 1020.18 1020.00 1019.74 1019.50 1019.55 1020.06 1020.34 1020.52 1020.77 1020.99 1021.22 1021.43 1021.64 1021.87 1022.02 1022.14 1022.24 1022.35 1022.53 1022.66 1022.81 1023.07 1023.35 1023.51 1023.72 1023.72 1023.68 1023.65 1023.74 1023.76 1023.75 1023.72 1023.68 1023.59
1014.60 1015.94 1017.34 1018.08 1017.79 1017.55 1017.36 1017.23 1017.13 1017.35 1017.52 1017.93 1018.40 1020.01 1020.44 1020.51 1020.37 1020.12 1019.94 1019.90 1020.28 1020.52 1020.68 1020.92 1021.06 1021.30 1021.50 1021.67 1021.85 1022.07 1022.27 1022.47 1022.64 1022.83 1022.99 1023.12 1023.36 1023.58 1023.76 1023.89 1023.95 1023.80 1023.91 1023.98 1024.08 1024.08 1024.01 1024.00 1023.96
1015.84 1016.82 1018.16 1018.51 1017.99 1017.39 1017.05 1016.88 1017.08 1017.38 1017.74 1018.33 1019.06 1020.15 1020.91 1020.91 1020.66 1020.87 1020.55 1020.63 1020.39 1020.54 1020.69 1020.95 1021.18 1021.33 1021.52 1021.74 1021.97 1022.21 1022.37 1022.63 1022.77 1022.91 1023.14 1023.27 1023.39 1023.59 1023.70 1023.84 1023.87 1023.89 1023.93 1024.04 1024.24 1024.28 1024.30 1024.20 1024.24
1016.38 1017.70 1018.41 1018.26 1017.96 1017.32 1016.63 1016.37 1016.89 1017.32 1017.76 1018.28 1018.88 1020.57 1021.24 1021.31 1021.23 1021.21 1021.13 1021.06 1021.08 1021.09 1021.12 1021.23 1021.39 1021.65 1021.77 1021.94 1022.05 1022.17 1022.30 1022.45 1022.57 1022.72 1022.88 1023.12 1023.29 1023.55 1023.77 1023.93 1023.99 1023.96 1024.09 1024.26 1024.55 1024.55 1024.54 1024.46 1024.54
1016.52 1017.80 1018.45 1018.16 1017.93 1017.16 1016.43 1016.36 1016.72 1017.17 1017.88 1018.29 1018.91 1020.32 1021.36 1021.10 1021.32 1021.36 1021.60 1021.75 1021.80 1021.76 1021.73 1021.74 1021.59 1021.63 1021.75 1021.95 1022.07 1022.07 1022.14 1022.30 1022.42 1022.60 1022.88 1023.19 1023.44 1023.64 1023.76 1023.96 1024.18 1024.18 1024.22 1024.43 1024.53 1024.56 1024.61 1024.58 1024.67
1016.43 1018.03 1018.45 1017.91 1017.70 1016.84 1016.48 1016.62 1016.82 1017.09 1017.88 1019.02 1019.64 1019.96 1020.09 1020.71 1021.39 1021.67 1022.03 1022.18 1022.23 1022.22 1022.13 1022.06 1021.93 1021.78 1021.61 1021.67 1022.05 1022.20 1022.29 1022.39 1022.56 1022.81 1023.08 1023.32 1023.52 1023.70 1023.93 1024.24 1024.52 1024.63 1024.66 1024.20 1024.50 1024.70 1024.93 1025.06 1025.21
1016.98 1018.17 1017.72 1017.28 1017.03 1016.75 1016.49 1016.54 1016.87 1017.43 1018.38 1019.49 1020.13 1020.38 1020.56 1020.96 1021.58 1022.04 1022.40 1022.54 1022.59 1022.60 1022.50 1022.38 1022.21 1022.11 1022.01 1021.73 1021.75 1021.86 1021.94 1022.29 1022.50 1022.71 1023.04 1023.26 1023.54 1023.86 1024.12 1024.40 1024.69 1025.00 1025.32 1025.21 1025.00 1025.13 1025.20 1025.45 1025.76
1016.87 1017.33 1017.10 1016.97 1016.72 1016.56 1016.66 1016.72 1016.88 1017.55 1018.62 1019.00 1019.80 1020.50 1020.87 1021.33 1021.84 1022.25 1022.56 1022.56 1022.56 1022.64 1022.73 1022.69 1022.59 1022.45 1022.29 1022.20 1022.02 1021.91 1021.97 1022.31 1022.48 1022.62 1022.85 1023.13 1023.52 1023.97 1024.38 1024.78 1025.08 1025.43 1025.72 1025.88 1025.87 1025.97 1026.20 1026.30 1026.40
1016.67 1016.81 1016.81 1016.87 1016.72 1016.67 1016.82 1016.84 1017.23 1017.75 1018.02 1018.31 1019.03 1020.03 1020.82 1021.46 1021.89 1022.22 1022.51 1022.67 1022.76 1022.86 1022.92 1022.91 1022.80 1022.59 1022.42 1022.33 1022.23 1022.12 1022.34 1022.64 1022.83 1022.87 1022.85 1023.06 1023.59 1024.16 1024.51 1024.91 1025.15 1025.35 1025.82 1026.17 1026.33 1026.49 1026.70 1026.80 1026.80
1016.68 1016.81 1016.73 1016.78 1016.86 1016.89 1016.97 1017.22 1017.58 1018.04 1018.46 1018.88 1019.48 1020.41 1021.16 1021.66 1022.04 1022.35 1022.43 1022.65 1022.82 1022.96 1023.00 1022.98 1022.85 1022.67 1022.51 1022.52 1022.51 1022.75 1023.06 1023.14 1023.28 1023.29 1023.30 1023.28 1023.67 1024.23 1024.69 1025.09 1025.45 1025.85 1026.01 1026.31 1026.69 1026.83 1026.98 1027.16 1027.24
1016.95 1017.06 1017.01 1016.96 1017.10 1017.13 1017.40 1017.69 1018.00 1018.25 1018.97 1019.69 1020.21 1020.80 1021.36 1021.67 1021.96 1022.40 1022.58 1022.66 1022.82 1022.97 1023.03 1023.07 1022.98 1022.78 1022.49 1022.56 1022.85 1023.16 1023.37 1023.54 1023.55 1023.75 1023.75 1023.91 1024.18 1024.53 1024.94 1025.36 1025.71 1026.00 1026.34 1026.49 1026.60 1026.78 1027.08 1027.18 1027.49
1017.30 1017.59 1017.49 1017.16 1017.32 1017.45 1017.65 1018.23 1018.07 1018.48 1019.39 1020.15 1020.76 1021.14 1021.61 1021.80 1021.98 1022.05 1022.19 1022.44 1022.64 1022.95 1023.06 1023.05 1023.00 1023.01 1022.89 1022.89 1023.16 1023.48 1023.71 1023.85 1023.96 1024.22 1024.27 1024.43 1024.68 1024.97 1025.37 1025.81 1026.27 1026.44 1026.59 1026.81 1026.83 1027.20 1027.34 1027.52 1027.70
1018.09 1018.30 1018.32 1017.38 1017.46 1017.64 1018.10 1018.06 1017.87 1018.61 1019.52 1020.40 1020.95 1021.42 1021.67 1021.76 1021.70 1021.96 1022.10 1022.35 1022.62 1022.84 1023.06 1023.03 1022.84 1023.20 1023.26 1023.04 1023.40 1023.74 1023.98 1024.02 1024.27 1024.50 1024.69 1024.89 1025.19 1025.50 1025.85 1026.22 1026.69 1026.82 1026.92 1027.25 1027.54 1027.73 1028.24 1028.73 1028.79
1019.24 1019.13 1018.94 1018.15 1017.78 1017.97 1018.38 1018.30 1018.00 1018.67 1019.45 1020.27 1020.77 1021.27 1021.43 1021.67 1021.78 1021.82 1021.97 1022.25 1022.53 1022.65 1022.86 1023.03 1023.12 1023.27 1023.38 1023.45 1023.70 1024.03 1024.25 1024.43 1024.73 1024.84 1025.12 1025.50 1025.68 1025.96 1026.36 1026.94 1027.32 1027.28 1027.54 1027.66 1027.92 1028.12 1028.45 1029.13 1029.45
1019.60 1019.61 1019.02 1018.64 1018.24 1018.41 1018.68 1018.35 1018.36 1018.83 1019.37 1019.55 1020.16 1020.61 1021.03 1021.20 1020.96 1021.41 1021.77 1022.15 1022.41 1022.56 1022.77 1022.91 1023.02 1023.20 1023.29 1023.54 1024.08 1024.51 1024.94 1025.15 1025.19 1025.26 1025.53 1025.92 1026.28 1026.59 1026.84 1027.25 1027.64 1027.60 1027.87 1028.20 1028.39 1028.80 1029.36 1029.76 1029.83
1019.02 1019.26 1019.01 1018.51 1018.06 1018.58 1018.45 1018.31 1018.02 1018.34 1018.99 1019.14 1019.50 1019.72 1020.06 1020.27 1020.75 1021.44 1021.79 1022.14 1022.49 1022.64 1022.79 1022.85 1022.92 1023.01 1023.19 1023.65 1024.17 1024.72 1025.28 1025.78 1025.75 1025.80 1025.73 1026.27 1026.79 1027.01 1027.22 1027.54 1027.84 1028.18 1028.28 1028.72 1028.75 1029.07 1029.56 1030.41 1030.56
1019.10 1019.28 1019.05 1018.64 1018.25 1018.72 1018.36 1018.25 1017.72 1017.70 1017.61 1017.43 1017.55 1018.11 1018.39 1019.51 1020.28 1020.98 1021.54 1021.94 1022.24 1022.41 1022.61 1022.74 1022.72 1022.86 1022.95 1023.23 1023.86 1024.51 1025.49 1026.36 1026.57 1026.75 1026.72 1026.56 1026.92 1027.40 1027.54 1027.87 1028.26 1028.48 1028.72 1029.01 1029.08 1029.15 1030.08 1031.03 1031.08
1018.97 1019.05 1018.96 1018.93 1018.66 1018.77 1018.82 1018.27 1017.59 1016.37 1016.16 1015.92 1015.88 1015.81 1016.54 1017.35 1018.68 1019.92 1020.73 1021.10 1021.67 1021.96 1022.19 1022.40 1022.57 1022.67 1022.87 1023.11 1023.84 1024.84 1025.72 1026.47 1027.01 1027.41 1027.58 1027.49 1027.29 1027.65 1027.94 1028.28 1028.51 1028.92 1029.00 1029.39 1029.72 1029.68 1029.91 1031.17 1031.71
1018.63 1018.20 1018.59 1019.00 1019.46 1019.49 1019.21 1017.88 1017.03 1016.20 1015.50 1015.16 1014.37 1014.89 1015.21 1016.32 1017.69 1018.98 1019.90 1020.62 1020.89 1021.27 1021.75 1022.01 1022.32 1022.61 1022.94 1023.14 1023.70 1024.20 1025.06 1026.31 1027.19 1027.63 1028.02 1027.92 1027.78 1028.19 1028.40 1028.58 1028.85 1029.18 1029.49 1029.77 1030.19 1030.10 1030.13 1030.59 1031.51
1018.06 1018.22 1018.84 1019.27 1019.87 1020.09 1019.80 1019.59 1016.04 1015.56 1015.19 1014.26 1013.23 1013.74 1014.31 1015.24 1016.12 1017.39 1018.28 1019.06 1020.04 1020.72 1021.18 1021.64 1022.09 1022.54 1022.90 1023.25 1023.69 1024.32 1025.34 1026.15 1027.09 1027.83 1028.28 1028.39 1028.61 1028.75 1028.93 1029.11 1029.47 1029.86 1030.10 1030.56 1030.79 1030.90 1031.04 1031.33 1031.90
1018.03 1018.81 1019.69 1020.47 1020.98 1020.64 1019.38 1019.35 1015.69 1015.01 1013.71 1013.04 1012.39 1012.91 1013.51 1014.43 1015.49 1016.57 1017.75 1018.78 1019.72 1020.42 1020.94 1021.35 1021.86 1022.42 1022.86 1023.28 1023.83 1024.35 1025.14 1026.10 1027.22 1028.04 1028.51 1028.83 1029.14 1029.31 1029.48 1029.64 1030.04 1030.46 1030.52 1031.05 1031.39 1031.64 1031.81 1032.11 1032.17
1018.23 1019.45 1020.83 1021.71 1021.94 1020.03 1018.96 1018.64 1014.53 1013.32 1012.61 1012.30 1012.11 1012.52 1013.32 1014.23 1015.32 1016.44 1017.42 1018.34 1019.25 1019.94 1020.48 1021.00 1021.41 1022.10 1022.69 1023.29 1023.79 1024.36 1024.96 1025.56 1026.39 1027.44 1028.20 1028.83 1029.24 1029.59 1029.91 1030.00 1030.53 1030.77 1030.99 1031.37 1031.77 1032.25 1032.66 1032.69 1032.75
1018.10 1018.58 1019.76 1020.67 1021.46 1020.50 1019.37 1016.86 1013.59 1012.28 1011.63 1012.10 1012.24 1012.45 1013.34 1014.65 1015.56 1016.35 1016.96 1017.81 1018.71 1019.51 1020.23 1020.71 1021.17 1021.78 1022.49 1023.21 1023.80 1024.33 1024.86 1025.55 1026.43 1027.21 1028.08 1028.59 1028.85 1029.22 1029.79 1030.34 1030.61 1031.01 1031.20 1031.64 1032.11 1032.67 1032.96 1032.97 1033.11
1017.89 1018.20 1018.52 1019.87 1021.40 1020.85 1017.92 1015.02 1013.25 1012.24 1011.92 1011.74 1011.90 1012.91 1013.99 1014.92 1015.41 1015.92 1016.83 1017.58 1018.46 1019.22 1019.75 1020.24 1020.78 1021.42 1022.18 1022.87 1023.60 1024.24 1024.85 1025.50 1026.29 1027.25 1028.11 1028.59 1028.96 1029.28 1029.98 1030.42 1030.78 1031.18 1031.44 1032.00 1032.41 1032.90 1033.19 1033.24 1033.48
1016.32 1016.88 1018.67 1020.00 1020.82 1019.83 1016.78 1015.01 1012.70 1011.96 1011.72 1011.42 1011.90 1012.45 1013.59 1014.68 1015.53 1016.12 1016.75 1017.34 1018.01 1018.84 1019.53 1020.15 1020.65 1021.11 1021.80 1022.54 1023.27 1023.95 1024.63 1025.36 1026.18 1027.10 1027.91 1028.49 1028.90 1029.31 1029.92 1030.39 1030.78 1031.25 1031.69 1032.18 1032.44 1032.96 1033.31 1033.43 1033.78
1016.49 1016.49 1017.17 1018.04 1018.78 1018.08 1016.36 1012.56 1010.51 1010.20 1010.30 1010.72 1011.10 1011.56 1012.87 1014.01 1014.99 1015.68 1016.50 1017.23 1017.97 1018.60 1019.28 1019.86 1020.37 1020.91 1021.63 1022.23 1022.93 1023.65 1024.37 1025.14 1026.08 1026.98 1027.72 1028.19 1028.70 1029.26 1029.78 1030.33 1030.84 1031.33 1031.87 1032.25 1032.69 1033.04 1033.28 1033.37 1033.53
1015.19 1015.27 1015.84 1016.54 1017.17 1016.52 1014.78 1009.36 1009.14 1009.17 1009.56 1010.17 1010.55 1011.13 1012.10 1013.17 1014.34 1015.24 1016.10 1016.98 1017.67 1018.32 1018.86 1019.39 1020.07 1020.60 1021.22 1021.97 1022.72 1023.42 1024.10 1024.88 1025.78 1026.59 1027.29 1027.97 1028.48 1029.12 1029.53 1030.05 1030.62 1031.36 1031.81 1032.05 1032.47 1032.86 1032.97 1033.16 1033.34
Wind_Speed
6 6 2 6 7 7 2 1 1 1 5 3 3 10 9 4 2 4 2 4 12 8 6 6 12 11 12 11 11 10 12 13 13 13 13 14 16 17 18 17 17 16 15 15 16 16 16 15 15
4 3 6 3 7 5 3 3 4 3 6 7 8 4 8 4 2 3 3 6 11 10 7 7 12 12 12 11 11 11 11 11 12 12 13 14 15 16 17 17 16 16 15 15 16 15 15 15 16
2 4 5 6 4 5 5 4 6 6 8 4 5 6 4 1 2 3 2 9 8 7 7 8 11 12 12 11 11 10 10 11 11 12 12 13 15 15 16 17 15 16 16 16 16 16 16 16 17
3 6 6 7 3 1 7 6 5 5 2 6 5 7 3 1 1 2 3 12 9 7 7 9 11 11 11 10 10 10 10 11 11 11 12 13 14 15 15 15 16 16 17 17 17 17 17 17 18
5 4 6 4 3 3 1 4 7 4 2 4 2 4 4 3 5 7 8 7 9 6 7 7 10 10 10 11 10 9 10 10 10 11 12 13 14 14 15 14 14 16 16 17 16 16 17 17 17
5 4 6 2 2 2 3 6 7 3 2 4 7 6 3 2 8 5 8 7 5 7 7 6 8 10 11 9 9 8 9 10 10 10 11 14 14 14 15 14 14 15 16 16 15 15 15 16 17
7 5 4 4 4 2 4 5 7 6 5 2 9 6 2 2 6 6 8 8 8 7 6 4 6 7 7 6 7 8 9 9 9 10 11 13 13 14 14 13 14 15 15 16 15 14 14 15 15
6 5 3 3 6 4 3 3 6 5 3 4 3 7 6 6 8 8 7 7 7 6 6 5 3 5 6 5 7 8 9 9 10 10 11 11 11 11 11 11 11 14 16 14 14 14 13 13 13
4 6 1 0 6 4 2 4 0 3 7 4 4 4 3 11 8 8 5 4 4 4 4 3 3 2 2 5 5 6 7 7 7 7 9 9 5 6 8 7 10 9 10 16 12 12 12 12 12
6 4 4 2 3 5 6 5 7 4 4 3 3 3 5 8 7 9 6 6 4 3 2 3 4 3 2 2 5 6 5 5 4 5 6 5 5 4 5 7 9 10 8 8 10 11 11 8 5
3 5 3 2 1 3 5 2 3 8 3 7 10 10 7 5 6 8 6 6 6 4 2 3 3 4 3 2 2 1 1 2 2 6 6 5 5 5 4 3 4 4 6 3 5 6 5 6 5
3 1 3 3 1 3 6 2 3 5 5 2 9 9 7 9 9 9 8 7 6 4 2 2 3 2 2 2 0 2 4 2 3 3 4 5 4 4 4 3 3 4 3 4 4 4 5 6 6
2 1 1 3 4 2 1 3 4 4 1 5 11 8 10 8 8 5 6 5 6 5 2 2 3 3 2 3 4 4 4 4 4 5 5 5 6 6 4 4 4 3 3 3 4 4 4 5 5
4 0 3 4 3 3 4 2 2 2 6 8 9 9 9 9 9 5 6 7 6 4 2 1 3 2 4 6 6 5 4 4 5 5 5 7 5 5 5 5 4 4 3 3 3 4 4 4 4
1 3 4 5 4 4 4 5 10 5 8 10 9 8 8 9 8 9 8 7 7 4 5 3 4 4 5 8 6 5 4 4 5 5 6 7 6 6 6 5 5 3 4 4 4 5 5 5 5
2 4 3 3 7 3 5 8 4 8 12 11 10 8 8 8 9 8 7 6 7 6 6 5 4 5 5 8 6 5 5 5 5 4 5 7 7 7 6 5 4 3 4 4 4 4 5 5 5
5 3 4 8 6 4 5 6 4 6 9 9 9 9 9 8 8 7 7 8 8 7 7 7 6 7 7 8 7 7 7 6 5 5 6 7 8 8 7 5 4 5 5 5 4 5 4 4 4
6 4 5 5 4 2 3 11 7 6 8 12 10 10 10 11 15 8 8 7 7 7 6 7 5 8 8 8 7 6 6 6 4 5 7 7 5 6 7 5 5 4 5 5 5 6 6 4 4
4 4 4 3 4 5 8 9 11 9 7 10 10 12 14 16 6 7 7 7 7 6 7 7 8 9 8 7 7 5 5 4 4 4 9 7 6 6 6 5 6 4 5 5 4 4 7 7 4
4 4 7 6 4 6 7 11 10 6 9 13 17 15 18 9 10 10 9 8 9 8 8 7 9 9 7 6 4 4 5 4 4 3 6 6 7 6 6 6 6 6 6 6 4 4 4 4 5
6 7 5 8 1 3 3 7 10 10 8 8 11 16 14 20 19 16 15 14 10 11 10 10 10 10 7 9 9 8 7 5 3 3 4 3 7 7 7 6 7 6 5 5 4 4 6 5 4
7 7 6 4 2 5 4 9 5 7 11 9 16 13 17 15 15 16 16 14 14 12 8 9 9 7 8 11 11 14 6 6 3 3 2 4 6 7 6 7 7 7 5 7 5 4 4 4 4
7 4 4 2 3 2 3 5 7 4 8 16 21 12 14 16 22 22 21 19 13 11 12 8 7 7 9 10 9 8 7 6 6 4 6 6 5 6 6 6 7 7 6 6 6 6 7 4 4
6 6 7 5 3 5 9 9 6 8 13 9 9 7 14 15 18 17 14 12 11 8 9 9 9 9 10 10 10 11 14 13 10 6 6 4 4 4 6 7 6 5 7 6 6 6 7 6 6
4 7 2 4 1 10 2 5 14 9 11 12 13 8 10 10 14 15 17 16 14 14 12 11 12 11 10 11 11 12 14 15 15 12 8 10 6 4 5 6 6 5 6 6 6 6 6 5 5
8 9 9 8 6 6 2 10 8 13 12 6 10 8 7 9 11 14 16 15 15 13 12 13 12 11 11 11 10 11 13 9 8 8 8 6 5 7 6 6 6 7 7 6 6 4 4 5 5
7 9 5 2 1 1 7 9 8 10 10 10 11 4 6 8 12 15 13 13 14 14 14 12 11 11 11 11 11 11 10 11 10 8 6 5 6 7 7 7 8 7 7 6 6 4 5 5 5
7 9 3 2 3 7 6 7 10 5 13 14 13 9 9 9 8 10 12 13 12 11 10 8 10 12 12 12 11 11 12 10 10 9 9 9 7 8 9 8 7 7 7 6 6 5 5 6 4
4 6 4 5 6 6 3 9 9 14 12 12 13 10 10 13 13 12 11 10 11 10 10 12 11 11 11 12 11 12 10 10 10 9 8 9 8 9 9 8 8 7 7 6 6 5 6 6 6
1 4 7 6 7 7 3 19 5 5 6 8 10 9 8 11 13 12 11 11 11 13 12 13 11 11 11 10 11 12 12 11 11 10 10 9 11 8 9 9 8 7 7 7 7 7 6 6 6
Wind_Direction
331 329 80 45 58 66 19 74 178 68 44 353 28 102 118 77 91 182 275 120 128 136 131 128 116 111 104 100 94 94 88 88 92 92 91 96 95 89 80 74 68 67 64 57 55 52 47 43 40
331 4 43 82 83 73 293 300 116 139 141 144 91 69 52 60 64 126 102 171 141 141 142 134 129 126 122 119 115 111 106 104 96 93 99 95 97 91 86 77 69 68 66 61 58 56 52 48 44
315 61 79 87 106 149 167 221 161 138 172 157 88 60 98 66 12 164 151 152 132 138 139 139 137 136 132 130 123 114 110 105 103 102 103 97 103 94 87 80 74 68 64 59 57 56 52 47 47
42 13 33 79 81 270 158 194 195 135 142 89 123 67 41 340 161 162 119 150 136 143 141 148 144 139 132 124 120 120 119 116 113 110 105 105 112 103 94 87 79 73 65 60 56 55 54 52 52
39 57 57 64 28 86 77 191 152 132 109 62 129 141 98 38 64 44 73 125 135 139 144 153 148 144 142 141 140 136 133 124 120 117 116 112 116 108 99 96 92 82 76 70 65 61 56 55 53
43 92 64 145 206 158 164 183 139 123 131 173 75 99 166 10 79 37 71 76 95 132 137 140 144 152 153 155 150 151 146 140 137 135 129 126 130 126 121 115 103 93 86 81 76 72 67 63 59
104 78 168 143 179 166 194 144 130 149 130 70 144 105 175 139 134 110 83 71 65 57 69 93 130 139 142 151 161 169 166 156 152 149 143 139 136 138 135 130 124 114 104 100 88 78 73 70 66
100 89 95 184 181 217 237 95 124 136 128 121 120 168 186 199 148 105 82 79 72 69 72 62 86 163 163 168 162 168 181 171 166 157 148 141 139 141 144 143 137 131 121 110 108 101 87 80 76
93 64 95 241 160 215 206 128 108 108 98 57 1 144 179 132 128 97 89 64 64 54 58 78 94 90 158 165 172 162 151 178 169 146 144 141 143 153 148 139 130 124 128 125 116 104 89 77 61
81 98 196 199 200 211 181 152 157 119 117 53 47 34 104 126 144 137 146 142 130 111 40 33 19 3 325 276 169 189 175 163 171 161 154 156 152 143 121 127 118 101 66 65 95 95 95 80 63
143 159 195 246 254 157 167 147 188 121 227 190 186 178 162 143 152 149 164 168 166 155 89 29 10 344 328 321 303 215 132 123 191 179 172 164 143 133 113 104 101 100 78 56 52 51 39 49 58
96 151 170 169 311 124 158 162 168 171 217 261 171 153 146 157 164 166 170 169 157 144 131 11 2 340 311 282 300 83 98 71 59 51 151 130 122 115 108 117 108 97 98 83 64 63 61 52 53
111 263 282 162 147 142 144 190 183 220 230 93 126 140 155 159 165 172 166 158 151 155 154 8 3 341 327 94 77 69 72 71 57 49 56 106 117 124 111 88 83 80 109 91 82 74 70 64 58
171 252 266 223 208 197 187 231 164 221 148 130 146 168 172 172 174 148 168 171 164 149 149 26 49 73 101 88 88 87 70 71 74 52 57 61 78 97 100 100 97 82 73 86 98 95 91 78 75
66 314 323 226 197 223 147 284 234 180 164 168 178 180 182 191 183 189 187 176 166 163 153 150 101 82 87 101 90 87 85 84 75 70 62 72 76 94 97 86 79 87 85 87 79 66 63 64 64
35 50 356 285 148 215 133 262 249 172 163 194 195 196 195 201 200 194 187 169 160 153 154 140 118 114 99 105 102 97 89 87 80 74 69 72 79 86 91 95 92 90 89 71 61 66 65 58 60
354 233 216 313 202 132 169 258 268 161 173 200 203 205 206 206 212 203 189 172 171 167 155 149 147 130 118 106 101 96 90 81 81 92 81 76 81 79 88 88 82 82 86 83 89 60 85 70 68
206 224 244 233 222 202 205 258 258 197 193 212 206 213 211 209 212 192 182 174 168 167 162 153 146 134 126 113 103 87 83 72 74 90 93 87 85 90 98 88 87 84 89 76 69 83 58 73 80
162 194 236 253 231 167 232 256 259 211 226 237 226 218 216 217 192 185 183 170 167 172 168 168 153 154 143 136 127 113 113 97 86 88 102 95 91 93 104 100 87 76 88 96 89 95 72 37 14
232 254 259 271 247 183 258 253 261 227 225 219 226 222 217 185 178 185 181 179 182 179 184 174 167 167 160 148 117 120 123 78 75 58 69 93 102 95 97 102 102 98 103 78 71 78 97 64 6
227 209 232 231 14 254 309 264 245 256 236 240 241 229 214 199 186 184 187 188 182 186 184 180 176 171 159 129 116 102 99 100 89 48 65 57 95 94 97 98 99 90 86 90 72 86 103 126 32
240 202 193 201 133 241 149 282 271 249 255 231 245 224 219 193 185 182 184 188 191 190 179 179 175 164 147 145 144 151 142 141 142 123 113 96 85 93 92 94 95 94 92 90 83 76 98 114 119
229 160 189 189 184 352 232 294 256 245 261 257 253 229 217 193 182 186 189 189 186 177 180 170 160 152 153 155 156 139 112 115 122 112 114 100 84 86 91 92 95 95 92 82 91 74 71 61 105
135 80 47 49 77 264 223 196 195 209 224 254 259 221 212 192 192 187 179 166 174 166 168 165 160 165 159 153 148 145 139 139 138 139 135 124 110 101 92 94 93 101 98 99 92 84 83 93 89
106 101 296 321 339 241 335 235 250 260 239 225 256 265 217 189 179 172 167 173 173 178 174 170 168 165 159 157 154 152 152 153 154 156 154 148 142 128 127 115 117 108 109 100 96 94 98 97 96
202 164 166 217 212 257 343 239 249 234 266 271 275 272 181 169 178 182 179 176 175 173 173 175 174 164 159 157 156 155 155 155 154 156 155 154 148 142 134 127 120 116 109 107 107 105 106 105 100
203 212 174 63 78 13 223 277 287 252 278 275 258 222 193 182 181 178 170 173 173 178 180 175 166 162 165 166 159 160 157 154 157 143 145 145 131 135 136 132 127 127 118 123 124 120 119 111 107
165 163 95 19 239 250 264 258 231 219 239 252 267 226 194 183 179 177 180 178 178 179 172 167 173 173 169 164 164 164 162 155 147 148 152 152 143 140 144 141 136 131 131 136 127 126 133 121 126
154 192 185 145 164 207 282 254 217 210 215 224 240 232 189 185 188 184 185 180 178 169 171 180 177 165 166 166 164 159 156 148 147 153 155 157 149 154 150 148 140 143 146 145 134 144 150 137 140
304 249 175 151 215 240 217 253 186 195 227 209 252 235 193 187 186 185 178 171 173 180 180 182 181 175 172 165 160 163 155 151 155 160 164 159 160 158 155 153 148 150 155 155 157 168 163 158 161